�������l�o���
Date,Time,MP-1(��Sv/h),MP-2(��Sv/h),MP-3(��Sv/h),MP-4(��Sv/h),MP-5(��Sv/h),MP-6(��Sv/h),MP-7(��Sv/h),MP-8(��Sv/h),����,����(m/s),���J
2021/07/19,00:00,0.621,0.930,0.593,1.120,0.809,0.374,0.646,0.601,�k��,1.7,��
2021/07/19,00:10,0.622,0.929,0.594,1.122,0.808,0.376,0.646,0.602,���k��,1.7,��
2021/07/19,00:20,0.623,0.929,0.591,1.122,0.810,0.375,0.645,0.602,��,1.1,��
2021/07/19,00:30,0.622,0.929,0.591,1.122,0.809,0.375,0.645,0.600,��,1.7,��
2021/07/19,00:40,0.624,0.929,0.591,1.121,0.809,0.377,0.646,0.602,��,1.1,��
2021/07/19,00:50,0.622,0.930,0.594,1.124,0.809,0.375,0.645,0.601,�k��,1.7,��
2021/07/19,01:00,0.624,0.930,0.593,1.120,0.810,0.376,0.645,0.602,�k��,2.3,��
2021/07/19,01:10,0.622,0.926,0.593,1.121,0.809,0.375,0.645,0.601,�k��,3.8,��
2021/07/19,01:20,0.622,0.929,0.590,1.120,0.809,0.376,0.644,0.602,�k��,2.9,��
2021/07/19,01:30,0.623,0.929,0.593,1.123,0.810,0.374,0.643,0.599,�k�k��,3.0,��
2021/07/19,01:40,0.620,0.926,0.592,1.122,0.809,0.374,0.645,0.601,�k�k��,3.9,��
2021/07/19,01:50,0.620,0.928,0.593,1.122,0.807,0.375,0.643,0.600,�k,3.2,��
2021/07/19,02:00,0.622,0.929,0.590,1.122,0.807,0.374,0.645,0.600,�k,2.9,��
2021/07/19,02:10,0.621,0.928,0.590,1.122,0.810,0.376,0.644,0.600,�k,3.0,��
2021/07/19,02:20,0.621,0.928,0.591,1.120,0.811,0.376,0.644,0.600,�k�k��,2.9,��
2021/07/19,02:30,0.620,0.928,0.593,1.122,0.809,0.374,0.646,0.600,�k�k��,3.1,��
2021/07/19,02:40,0.620,0.929,0.594,1.122,0.810,0.374,0.643,0.600,�k�k��,2.9,��
2021/07/19,02:50,0.620,0.928,0.592,1.122,0.809,0.374,0.643,0.601,�k�k��,3.6,��
2021/07/19,03:00,0.622,0.929,0.591,1.119,0.809,0.374,0.645,0.600,�k�k��,3.1,��
2021/07/19,03:10,0.621,0.928,0.592,1.122,0.809,0.375,0.644,0.601,�k�k��,2.6,��
2021/07/19,03:20,0.622,0.927,0.591,1.120,0.808,0.375,0.644,0.599,�k��,2.5,��
2021/07/19,03:30,0.621,0.928,0.592,1.121,0.809,0.374,0.644,0.600,�k��,3.2,��
2021/07/19,03:40,0.621,0.926,0.590,1.120,0.808,0.375,0.645,0.600,�k�k��,2.6,��
2021/07/19,03:50,0.619,0.927,0.593,1.122,0.808,0.373,0.643,0.601,�k�k��,2.0,��
2021/07/19,04:00,0.620,0.928,0.592,1.121,0.810,0.375,0.642,0.600,�k��,2.9,��
2021/07/19,04:10,0.622,0.928,0.590,1.120,0.807,0.375,0.644,0.600,�k�k��,2.6,��
2021/07/19,04:20,0.620,0.926,0.589,1.120,0.809,0.373,0.644,0.599,�k,2.0,��
2021/07/19,04:30,0.620,0.927,0.592,1.123,0.807,0.377,0.644,0.600,�k�k��,1.7,��
2021/07/19,04:40,0.621,0.927,0.590,1.120,0.808,0.374,0.643,0.600,���k��,1.1,��
2021/07/19,04:50,0.620,0.927,0.591,1.120,0.808,0.374,0.645,0.602,��,0.9,��
2021/07/19,05:00,0.619,0.928,0.590,1.121,0.808,0.374,0.645,0.600,���k��,1.1,��
2021/07/19,05:10,0.620,0.927,0.591,1.122,0.807,0.375,0.643,0.600,�k��,0.6,��
2021/07/19,05:20,0.619,0.929,0.591,1.121,0.808,0.374,0.644,0.600,�k��,0.9,��
2021/07/19,05:30,0.621,0.930,0.592,1.122,0.807,0.373,0.645,0.600,�k��,1.7,��
2021/07/19,05:40,0.620,0.928,0.590,1.121,0.809,0.374,0.645,0.601,�k�k��,2.2,��
2021/07/19,05:50,0.620,0.929,0.591,1.122,0.807,0.372,0.644,0.600,�k�k��,3.0,��
2021/07/19,06:00,0.618,0.927,0.591,1.120,0.808,0.374,0.644,0.602,�k�k��,3.0,��
2021/07/19,06:10,0.620,0.928,0.590,1.121,0.808,0.373,0.644,0.602,�k�k��,3.0,��
2021/07/19,06:20,0.620,0.929,0.590,1.122,0.808,0.373,0.644,0.600,�k�k��,2.5,��
2021/07/19,06:30,0.620,0.926,0.592,1.122,0.808,0.375,0.643,0.601,�k,1.7,��
2021/07/19,06:40,0.622,0.929,0.591,1.120,0.806,0.375,0.645,0.602,�k,1.5,��
2021/07/19,06:50,0.621,0.928,0.588,1.121,0.807,0.375,0.643,0.600,�k�k��,1.7,��
2021/07/19,07:00,0.621,0.927,0.591,1.122,0.805,0.375,0.643,0.600,�k�k��,2.3,��
2021/07/19,07:10,0.621,0.929,0.591,1.120,0.809,0.373,0.644,0.600,�k�k��,2.2,��
2021/07/19,07:20,0.620,0.929,0.589,1.120,0.807,0.374,0.645,0.602,�k��,1.9,��
2021/07/19,07:30,0.621,0.928,0.591,1.121,0.807,0.373,0.644,0.601,�k�k��,2.3,��
2021/07/19,07:40,0.618,0.929,0.590,1.118,0.808,0.373,0.644,0.599,�k,2.9,��
2021/07/19,07:50,0.622,0.927,0.591,1.120,0.806,0.374,0.644,0.601,�k,1.5,��
2021/07/19,08:00,0.620,0.929,0.591,1.122,0.804,0.373,0.644,0.600,�k,2.0,��
2021/07/19,08:10,0.621,0.926,0.590,1.120,0.807,0.374,0.644,0.601,�k,2.2,��
2021/07/19,08:20,0.619,0.928,0.589,1.117,0.806,0.373,0.644,0.602,�k�k��,2.2,��
2021/07/19,08:30,0.620,0.926,0.589,1.123,0.806,0.373,0.643,0.600,�k,2.3,��
2021/07/19,08:40,0.620,0.928,0.589,1.119,0.806,0.374,0.643,0.599,�k�k��,3.1,��
2021/07/19,08:50,0.619,0.925,0.589,1.121,0.808,0.371,0.645,0.599,�k�k��,3.2,��
2021/07/19,09:00,0.619,0.926,0.589,1.120,0.806,0.372,0.643,0.597,�k�k��,3.4,��
2021/07/19,09:10,0.619,0.926,0.588,1.121,0.807,0.371,0.644,0.597,�k�k��,3.3,��
2021/07/19,09:20,0.620,0.925,0.588,1.121,0.805,0.371,0.645,0.598,�k�k��,3.1,��
2021/07/19,09:30,0.620,0.925,0.589,1.118,0.806,0.374,0.644,0.598,�k�k��,2.6,��
2021/07/19,09:40,0.619,0.923,0.587,1.119,0.807,0.372,0.645,0.598,�k�k��,2.6,��
2021/07/19,09:50,0.620,0.924,0.588,1.120,0.806,0.372,0.647,0.597,�k�k��,2.9,��
2021/07/19,10:00,0.621,0.925,0.587,1.122,0.807,0.372,0.644,0.597,�k�k��,3.0,��
2021/07/19,10:10,0.621,0.928,0.588,1.122,0.809,0.374,0.646,0.599,�k�k��,3.3,��
2021/07/19,10:20,0.621,0.925,0.587,1.122,0.809,0.372,0.644,0.599,�k�k��,4.2,��
2021/07/19,10:30,0.621,0.925,0.589,1.121,0.809,0.373,0.643,0.599,�k��,3.3,��
2021/07/19,10:40,0.620,0.925,0.590,1.121,0.808,0.373,0.643,0.599,�k�k��,3.9,��
2021/07/19,10:50,0.620,0.925,0.590,1.121,0.808,0.372,0.644,0.598,�k�k��,3.9,��
2021/07/19,11:00,0.622,0.928,0.590,1.121,0.808,0.372,0.643,0.599,�k�k��,3.7,��
2021/07/19,11:10,0.621,0.928,0.590,1.121,0.807,0.372,0.642,0.599,�k��,3.0,��
2021/07/19,11:20,0.621,0.927,0.591,1.120,0.809,0.372,0.643,0.598,�k��,2.0,��
2021/07/19,11:30,0.622,0.926,0.590,1.119,0.812,0.373,0.645,0.600,�k��,2.6,��
2021/07/19,11:40,0.622,0.928,0.592,1.120,0.811,0.372,0.644,0.600,�k��,3.0,��
2021/07/19,11:50,0.621,0.928,0.592,1.120,0.812,0.372,0.645,0.600,���k��,2.9,��
2021/07/19,12:00,0.622,0.928,0.588,1.119,0.811,0.373,0.645,0.601,��,2.6,��
2021/07/19,12:10,0.621,0.929,0.593,1.123,0.808,0.373,0.643,0.599,��,2.6,��
2021/07/19,12:20,0.622,0.931,0.592,1.122,0.812,0.373,0.644,0.600,��,2.5,��
2021/07/19,12:30,0.622,0.930,0.590,1.121,0.810,0.373,0.644,0.599,��,2.6,��
2021/07/19,12:40,0.623,0.929,0.591,1.121,0.814,0.373,0.644,0.600,��,2.5,��
2021/07/19,12:50,0.622,0.930,0.592,1.123,0.811,0.373,0.643,0.601,���쓌,3.3,��
2021/07/19,13:00,0.622,0.929,0.591,1.122,0.812,0.372,0.645,0.602,�쓌,2.6,��
2021/07/19,13:10,0.621,0.931,0.591,1.121,0.813,0.372,0.645,0.600,���쓌,1.9,��
2021/07/19,13:20,0.623,0.928,0.593,1.122,0.811,0.373,0.645,0.600,���쓌,1.9,��
2021/07/19,13:30,0.621,0.929,0.592,1.122,0.814,0.374,0.645,0.600,�쓌,1.7,��
2021/07/19,13:40,0.622,0.930,0.592,1.121,0.814,0.374,0.644,0.599,�쓌,2.3,��
2021/07/19,13:50,0.622,0.928,0.591,1.121,0.813,0.374,0.645,0.600,��쓌,3.3,��
2021/07/19,14:00,0.622,0.930,0.592,1.121,0.812,0.373,0.644,0.599,��쓌,3.3,��
2021/07/19,14:10,0.623,0.929,0.592,1.123,0.815,0.373,0.644,0.600,��쓌,3.8,��
2021/07/19,14:20,0.623,0.930,0.592,1.121,0.813,0.374,0.644,0.599,��쓌,3.9,��
2021/07/19,14:30,0.621,0.930,0.592,1.122,0.814,0.374,0.645,0.600,��쓌,4.0,��
2021/07/19,14:40,0.621,0.931,0.591,1.123,0.814,0.374,0.645,0.600,��쓌,4.5,��
2021/07/19,14:50,0.623,0.930,0.591,1.123,0.812,0.374,0.644,0.601,��쓌,4.7,��
2021/07/19,15:00,0.623,0.934,0.593,1.125,0.813,0.374,0.646,0.601,��쓌,5.3,��
2021/07/19,15:10,0.620,0.931,0.592,1.124,0.816,0.372,0.646,0.600,��쓌,5.4,��
2021/07/19,15:20,0.623,0.934,0.591,1.125,0.812,0.373,0.645,0.600,��쓌,6.2,��
2021/07/19,15:30,0.623,0.933,0.592,1.126,0.813,0.376,0.645,0.599,��쓌,5.9,��
2021/07/19,15:40,0.624,0.932,0.593,1.125,0.814,0.374,0.646,0.599,��쓌,5.1,��
2021/07/19,15:50,0.624,0.934,0.594,1.125,0.816,0.374,0.646,0.598,��,5.6,��
2021/07/19,16:00,0.625,0.932,0.594,1.128,0.814,0.376,0.648,0.600,��,5.8,��
2021/07/19,16:10,0.623,0.932,0.595,1.126,0.812,0.375,0.646,0.598,��,5.6,��
2021/07/19,16:20,0.624,0.931,0.594,1.128,0.813,0.375,0.645,0.599,��쓌,5.6,��
2021/07/19,16:30,0.622,0.931,0.595,1.128,0.813,0.375,0.647,0.600,��,4.7,��
2021/07/19,16:40,0.623,0.931,0.594,1.127,0.814,0.374,0.648,0.599,��,5.1,��
2021/07/19,16:50,0.625,0.930,0.594,1.126,0.813,0.375,0.645,0.600,��,5.0,��
2021/07/19,17:00,0.625,0.931,0.594,1.128,0.813,0.373,0.647,0.600,��,5.6,��
2021/07/19,17:10,0.623,0.933,0.593,1.127,0.814,0.375,0.645,0.600,��,4.3,��
2021/07/19,17:20,0.624,0.932,0.592,1.127,0.814,0.375,0.645,0.599,��,3.8,��
2021/07/19,17:30,0.624,0.933,0.594,1.126,0.814,0.375,0.646,0.600,��,3.9,��
2021/07/19,17:40,0.622,0.932,0.593,1.128,0.812,0.375,0.644,0.600,��,3.9,��
2021/07/19,17:50,0.624,0.931,0.593,1.130,0.814,0.375,0.645,0.600,��,4.8,��
2021/07/19,18:00,0.624,0.933,0.593,1.128,0.813,0.374,0.646,0.598,��,5.3,��
2021/07/19,18:10,0.624,0.931,0.594,1.126,0.815,0.374,0.646,0.600,��,4.9,��
2021/07/19,18:20,0.623,0.931,0.594,1.127,0.814,0.374,0.645,0.600,��,5.5,��
2021/07/19,18:30,0.623,0.930,0.591,1.125,0.816,0.375,0.645,0.599,��,5.3,��
2021/07/19,18:40,0.623,0.931,0.593,1.129,0.816,0.372,0.644,0.600,��,5.2,��
2021/07/19,18:50,0.621,0.932,0.592,1.129,0.815,0.373,0.643,0.598,��,5.6,��
2021/07/19,19:00,0.622,0.933,0.593,1.125,0.815,0.373,0.645,0.601,��,5.2,��
2021/07/19,19:10,0.621,0.933,0.592,1.126,0.815,0.374,0.645,0.601,��,5.7,��
2021/07/19,19:20,0.624,0.935,0.593,1.127,0.816,0.373,0.645,0.600,��,5.0,��
2021/07/19,19:30,0.622,0.932,0.595,1.127,0.816,0.373,0.644,0.601,��,4.7,��
2021/07/19,19:40,0.625,0.934,0.593,1.125,0.816,0.374,0.646,0.602,��,4.1,��
2021/07/19,19:50,0.623,0.934,0.592,1.126,0.817,0.375,0.644,0.600,��,3.6,��
2021/07/19,20:00,0.623,0.934,0.592,1.125,0.816,0.374,0.644,0.600,��,3.3,��
2021/07/19,20:10,0.623,0.934,0.593,1.128,0.816,0.373,0.645,0.602,��쐼,2.8,��
2021/07/19,20:20,0.622,0.933,0.593,1.126,0.816,0.376,0.644,0.600,��쐼,2.5,��
2021/07/19,20:30,0.623,0.933,0.594,1.128,0.815,0.375,0.644,0.600,�쐼,2.0,��
2021/07/19,20:40,0.623,0.934,0.593,1.127,0.816,0.375,0.646,0.600,�쐼,1.9,��
2021/07/19,20:50,0.625,0.936,0.595,1.128,0.817,0.375,0.647,0.601,��쐼,2.0,��
2021/07/19,21:00,0.624,0.935,0.594,1.128,0.817,0.374,0.644,0.601,�쐼,2.0,��
2021/07/19,21:10,0.623,0.934,0.594,1.127,0.817,0.376,0.646,0.601,�쐼,1.2,��
2021/07/19,21:20,0.624,0.935,0.595,1.129,0.817,0.375,0.646,0.601,���쐼,1.4,��
2021/07/19,21:30,0.624,0.936,0.594,1.129,0.816,0.376,0.646,0.601,���쐼,1.4,��
2021/07/19,21:40,0.626,0.936,0.594,1.129,0.816,0.375,0.646,0.601,�쐼,0.8,��
2021/07/19,21:50,0.626,0.935,0.594,1.129,0.816,0.375,0.647,0.601,���쐼,0.6,��
2021/07/19,22:00,0.625,0.935,0.595,1.132,0.817,0.376,0.646,0.602,��,0.6,��
2021/07/19,22:10,0.626,0.938,0.596,1.131,0.816,0.376,0.647,0.601,���쐼,0.8,��
2021/07/19,22:20,0.626,0.936,0.595,1.128,0.816,0.375,0.646,0.602,-,CALM,��
2021/07/19,22:30,0.626,0.936,0.597,1.129,0.816,0.376,0.646,0.602,-,CALM,��
2021/07/19,22:40,0.626,0.936,0.597,1.128,0.816,0.375,0.647,0.602,�k,1.9,��
2021/07/19,22:50,0.626,0.937,0.596,1.130,0.819,0.375,0.647,0.603,�k�k��,4.7,��
2021/07/19,23:00,0.625,0.938,0.596,1.129,0.817,0.376,0.646,0.604,�k�k��,4.2,��
2021/07/19,23:10,0.624,0.937,0.595,1.131,0.817,0.375,0.648,0.602,�k�k��,3.5,��
2021/07/19,23:20,0.627,0.935,0.594,1.130,0.817,0.376,0.647,0.602,�k,3.0,��
2021/07/19,23:30,0.626,0.938,0.595,1.130,0.818,0.374,0.646,0.601,�k,3.0,��
2021/07/19,23:40,0.628,0.937,0.595,1.131,0.818,0.375,0.648,0.602,�k,4.0,��
2021/07/19,23:50,0.626,0.934,0.595,1.127,0.816,0.376,0.646,0.602,�k,4.4,��
